This is the latest recevied weather packets stored in our database for station/object KE0QIB. If no packets are shown the sender has not sent any weather packets the latest 1 day(s).
| Time | Temp. | Humidity | Pressure | Rain* | Wind** | Luminosity | Snow |
|---|---|---|---|---|---|---|---|
| 1778012212 | 7.22° C | 42% | 1000.9 hPa | 0 mm | 0.89 m/s, 216° | - | - |
| 1778011912 | 7.22° C | 42% | 1000.9 hPa | 0 mm | 0.89 m/s, 19° | - | - |
| 1778011612 | 6.67° C | 45% | 1000.9 hPa | 0 mm | 0.89 m/s, 14° | - | - |
| 1778011312 | 6.67° C | 43% | 1000.9 hPa | 0 mm | 0.89 m/s, 42° | - | - |
| 1778011012 | 7.22° C | 43% | 1000.9 hPa | 0 mm | 1.34 m/s, 211° | - | - |
| 1778010712 | 7.22° C | 42% | 1000.7 hPa | 0 mm | 1.34 m/s, 5° | - | - |
| 1778010412 | 7.22° C | 42% | 1000.7 hPa | 0 mm | 1.79 m/s, 67° | - | - |
| 1778010112 | 7.22° C | 41% | 1000.7 hPa | 0 mm | 1.79 m/s, 355° | - | - |
| 1778009812 | 7.78° C | 39% | 1000.9 hPa | 0 mm | 1.34 m/s, 66° | - | - |
| 1778009512 | 7.22° C | 40% | 1000.9 hPa | 0 mm | 1.34 m/s, 10° | - | - |
| 1778009212 | 7.22° C | 38% | 1000.9 hPa | 0 mm | 1.34 m/s, 9° | - | - |
| 1778008912 | 6.67° C | 43% | 1000.7 hPa | 0 mm | 1.34 m/s, 11° | - | - |
| 1778008612 | 7.22° C | 42% | 1000.7 hPa | 0 mm | 1.34 m/s, 63° | - | - |
| 1778008312 | 7.22° C | 42% | 1000.7 hPa | 0 mm | 1.79 m/s, 63° | - | - |
| 1778008012 | 6.67° C | 41% | 1000.7 hPa | 0 mm | 1.79 m/s, 224° | - | - |
| 1778007712 | 6.67° C | 43% | 1000.7 hPa | 0 mm | 1.34 m/s, 52° | - | - |
| 1778007412 | 6.67° C | 40% | 1000.7 hPa | 0 mm | 1.34 m/s, 9° | - | - |
| 1778007112 | 7.22° C | 43% | 1000.7 hPa | 0 mm | 1.79 m/s, 72° | - | - |
| 1778006812 | 7.22° C | 42% | 1000.7 hPa | 0 mm | 1.34 m/s, 27° | - | - |
| 1778006512 | 7.22° C | 42% | 1000.7 hPa | 0 mm | 1.34 m/s, 124° | - | - |
| 1778006212 | 7.22° C | 43% | 1000.7 hPa | 0 mm | 1.79 m/s, 208° | - | - |
| 1778005912 | 6.67° C | 45% | 1000.7 hPa | 0 mm | 1.79 m/s, 46° | - | - |
| 1778005612 | 6.67° C | 44% | 1000.7 hPa | 0 mm | 1.34 m/s, 48° | - | - |
| 1778005312 | 6.67° C | 45% | 1000.5 hPa | 0 mm | 0.89 m/s, 43° | - | - |
| 1778005012 | 6.67° C | 44% | 1000.5 hPa | 0 mm | 1.34 m/s, 266° | - | - |
* Rain latest hour (hover to see other rain measurements)
** Current wind speed in m/s (hover to see current wind gust speed)